When you browse on this site, cookies collect data to enhance your experience and personalize the content and advertising you see.
Visit our Privacy Policy to learn more. By continuing to use the site, you agree to this use of cookies and data.

Hourly Weather Zorya

Today, 10 August, Monday

Time Temperature Precipitation Wind Pressure Humidity
00:00 +23°C° 0 mm 4 mps 755 mmHg 51%
01:00 +22°C° 0 mm 4 mps 755 mmHg 53%
02:00 +21°C° 0 mm 3 mps 755 mmHg 55%
03:00 +21°C° 0 mm 3 mps 755 mmHg 56%
04:00 +21°C° 0 mm 3 mps 755 mmHg 56%
05:00 +21°C° 0 mm 3 mps 755 mmHg 56%
06:00 +24°C° 0 mm 3 mps 755 mmHg 52%
07:00 +25°C° 0 mm 3 mps 755 mmHg 48%
08:00 +27°C° 0 mm 3 mps 755 mmHg 44%
09:00 +28°C° 0 mm 3 mps 756 mmHg 41%
10:00 +29°C° 0 mm 3 mps 756 mmHg 37%
11:00 +30°C° 0 mm 3 mps 756 mmHg 33%
12:00 +30°C° 0 mm 3 mps 756 mmHg 33%
13:00 +30°C° 0 mm 3 mps 755 mmHg 33%
14:00 +30°C° 0 mm 3 mps 755 mmHg 33%
15:00 +30°C° 0 mm 3 mps 755 mmHg 35%
16:00 +30°C° 0 mm 3 mps 755 mmHg 36%
17:00 +29°C° 0 mm 3 mps 755 mmHg 37%
18:00 +28°C° 0 mm 3 mps 755 mmHg 40%
19:00 +27°C° 0 mm 3 mps 755 mmHg 43%
20:00 +27°C° 0 mm 3 mps 755 mmHg 46%
21:00 +26°C° 0 mm 3 mps 755 mmHg 48%
22:00 +25°C° 0 mm 3 mps 755 mmHg 51%
23:00 +25°C° 0 mm 2 mps 756 mmHg 53%

Tomorrow, 11 August, Tuesday

Time Temperature Precipitation Wind Pressure Humidity
00:00 +24°C° 0 mm 2 mps 756 mmHg 56%
01:00 +23°C° 0 mm 2 mps 756 mmHg 58%
02:00 +23°C° 0 mm 2 mps 756 mmHg 60%
03:00 +21°C° 0 mm 2 mps 756 mmHg 62%
04:00 +21°C° 0 mm 2 mps 756 mmHg 64%
05:00 +20°C° 0 mm 2 mps 756 mmHg 66%
06:00 +23°C° 0 mm 2 mps 756 mmHg 60%
07:00 +25°C° 0 mm 2 mps 756 mmHg 54%
08:00 +27°C° 0 mm 2 mps 756 mmHg 48%
09:00 +29°C° 0 mm 3 mps 756 mmHg 43%
10:00 +30°C° 0 mm 3 mps 756 mmHg 39%
11:00 +31°C° 0 mm 3 mps 756 mmHg 35%
12:00 +33°C° 0 mm 3 mps 755 mmHg 34%
13:00 +33°C° 0 mm 3 mps 755 mmHg 34%
14:00 +33°C° 0 mm 3 mps 755 mmHg 33%
15:00 +31°C° 0 mm 3 mps 755 mmHg 35%
16:00 +31°C° 0 mm 2 mps 755 mmHg 36%
17:00 +30°C° 0 mm 2 mps 755 mmHg 37%
18:00 +29°C° 0 mm 2 mps 755 mmHg 40%
19:00 +28°C° 0 mm 2 mps 755 mmHg 43%
20:00 +27°C° 0 mm 2 mps 755 mmHg 46%
21:00 +26°C° 0 mm 2 mps 755 mmHg 48%
22:00 +26°C° 0 mm 2 mps 755 mmHg 50%
23:00 +25°C° 0 mm 2 mps 755 mmHg 52%

Day after tomorrow, 12 August, Wednesday

Time Temperature Precipitation Wind Pressure Humidity
00:00 +25°C° 0 mm 2 mps 755 mmHg 55%
01:00 +24°C° 0 mm 2 mps 755 mmHg 57%
02:00 +23°C° 0 mm 2 mps 755 mmHg 59%
03:00 +23°C° 0 mm 2 mps 755 mmHg 60%
04:00 +23°C° 0 mm 2 mps 755 mmHg 62%
05:00 +23°C° 0 mm 2 mps 755 mmHg 63%
06:00 +24°C° 0 mm 2 mps 755 mmHg 58%
07:00 +26°C° 0 mm 2 mps 755 mmHg 52%
08:00 +28°C° 0 mm 2 mps 755 mmHg 46%
09:00 +29°C° 0 mm 2 mps 755 mmHg 41%
10:00 +31°C° 0 mm 2 mps 755 mmHg 37%
11:00 +32°C° 0 mm 2 mps 755 mmHg 33%
12:00 +33°C° 0.1 mm 3 mps 755 mmHg 35%
13:00 +31°C° 0.1 mm 3 mps 754 mmHg 37%
14:00 +32°C° 0.1 mm 4 mps 754 mmHg 39%
15:00 +30°C° 0.5 mm 3 mps 754 mmHg 41%
16:00 +30°C° 0.5 mm 3 mps 754 mmHg 43%
17:00 +29°C° 0.5 mm 3 mps 754 mmHg 45%
18:00 +28°C° 0.2 mm 3 mps 755 mmHg 50%
19:00 +26°C° 0.2 mm 4 mps 755 mmHg 55%
20:00 +25°C° 0.2 mm 5 mps 756 mmHg 59%
21:00 +23°C° 0 mm 5 mps 756 mmHg 58%
22:00 +22°C° 0 mm 6 mps 756 mmHg 57%
23:00 +20°C° 0 mm 6 mps 756 mmHg 55%

13 August, Thursday

Time Temperature Precipitation Wind Pressure Humidity
00:00 +20°C° 0 mm 6 mps 757 mmHg 58%
01:00 +19°C° 0 mm 5 mps 757 mmHg 60%
02:00 +17°C° 0 mm 5 mps 757 mmHg 63%
03:00 +16°C° 0 mm 5 mps 757 mmHg 65%
04:00 +15°C° 0 mm 5 mps 757 mmHg 67%
05:00 +14°C° 0 mm 4 mps 757 mmHg 69%
06:00 +16°C° 0 mm 5 mps 757 mmHg 63%
07:00 +17°C° 0 mm 5 mps 758 mmHg 57%
08:00 +20°C° 0 mm 6 mps 758 mmHg 51%
09:00 +22°C° 0 mm 5 mps 758 mmHg 45%
10:00 +23°C° 0 mm 5 mps 758 mmHg 40%
11:00 +26°C° 0 mm 5 mps 758 mmHg 35%
12:00 +27°C° 0 mm 5 mps 757 mmHg 32%
13:00 +27°C° 0 mm 5 mps 757 mmHg 29%
14:00 +28°C° 0 mm 5 mps 757 mmHg 27%
15:00 +28°C° 0 mm 5 mps 757 mmHg 28%
16:00 +28°C° 0 mm 5 mps 756 mmHg 29%
17:00 +27°C° 0 mm 6 mps 756 mmHg 29%
18:00 +26°C° 0 mm 5 mps 757 mmHg 34%
19:00 +23°C° 0 mm 5 mps 757 mmHg 39%
20:00 +21°C° 0 mm 5 mps 757 mmHg 44%
21:00 +20°C° 0 mm 4 mps 757 mmHg 47%
22:00 +19°C° 0 mm 4 mps 757 mmHg 49%
23:00 +18°C° 0 mm 4 mps 758 mmHg 52%

14 August, Friday

Time Temperature Precipitation Wind Pressure Humidity
00:00 +18°C° 0 mm 3 mps 758 mmHg 55%
01:00 +17°C° 0 mm 3 mps 758 mmHg 58%
02:00 +16°C° 0 mm 3 mps 758 mmHg 60%
03:00 +16°C° 0 mm 3 mps 758 mmHg 65%
04:00 +14°C° 0 mm 3 mps 758 mmHg 69%
05:00 +14°C° 0 mm 3 mps 758 mmHg 73%
06:00 +17°C° 0 mm 3 mps 758 mmHg 66%
07:00 +18°C° 0 mm 4 mps 758 mmHg 58%
08:00 +20°C° 0 mm 4 mps 758 mmHg 50%
09:00 +21°C° 0 mm 4 mps 758 mmHg 45%
10:00 +23°C° 0 mm 4 mps 758 mmHg 40%
11:00 +25°C° 0 mm 4 mps 758 mmHg 35%
12:00 +26°C° 0 mm 5 mps 758 mmHg 33%
13:00 +26°C° 0 mm 5 mps 758 mmHg 31%
14:00 +27°C° 0 mm 5 mps 758 mmHg 29%
15:00 +27°C° 0 mm 5 mps 758 mmHg 31%
16:00 +26°C° 0 mm 5 mps 757 mmHg 33%
17:00 +26°C° 0 mm 5 mps 757 mmHg 35%
18:00 +23°C° 0 mm 5 mps 758 mmHg 39%
19:00 +21°C° 0 mm 4 mps 758 mmHg 42%
20:00 +19°C° 0 mm 3 mps 758 mmHg 46%
21:00 +19°C° 0 mm 3 mps 758 mmHg 48%
22:00 +18°C° 0 mm 3 mps 758 mmHg 49%
23:00 +17°C° 0 mm 3 mps 759 mmHg 51%

15 August, Saturday

Time Temperature Precipitation Wind Pressure Humidity
00:00 +16°C° 0 mm 3 mps 759 mmHg 52%
01:00 +16°C° 0 mm 3 mps 759 mmHg 52%
02:00 +14°C° 0 mm 3 mps 759 mmHg 53%
03:00 +14°C° 0 mm 3 mps 759 mmHg 55%
04:00 +14°C° 0 mm 2 mps 759 mmHg 57%
05:00 +14°C° 0 mm 2 mps 759 mmHg 59%
06:00 +16°C° 0 mm 2 mps 759 mmHg 54%
07:00 +18°C° 0 mm 2 mps 759 mmHg 49%
08:00 +21°C° 0 mm 2 mps 759 mmHg 44%
09:00 +23°C° 0 mm 2 mps 759 mmHg 39%
10:00 +24°C° 0 mm 2 mps 759 mmHg 35%
11:00 +26°C° 0 mm 2 mps 758 mmHg 31%
12:00 +26°C° 0 mm 2 mps 758 mmHg 29%
13:00 +27°C° 0 mm 1 mps 758 mmHg 27%
14:00 +28°C° 0 mm 1 mps 757 mmHg 25%
15:00 +28°C° 0 mm 1 mps 757 mmHg 25%
16:00 +28°C° 0 mm 1 mps 757 mmHg 24%
17:00 +28°C° 0 mm 1 mps 756 mmHg 24%
18:00 +26°C° 0 mm 2 mps 756 mmHg 30%
19:00 +24°C° 0 mm 2 mps 756 mmHg 35%
20:00 +21°C° 0 mm 3 mps 756 mmHg 41%
21:00 +20°C° 0 mm 2 mps 756 mmHg 44%
22:00 +19°C° 0 mm 2 mps 756 mmHg 47%
23:00 +19°C° 0 mm 2 mps 756 mmHg 50%
Show more